• In Uzbekistan
  • List of Countries
  • For 7 days
  • Water Temperature
  • Satellite Maps
  • Weather Map
  • Weather Widgets
  • user-avatar
    Login

    Hourly Weather Ondjiwa

    Today, 9 December, Friday

    Time Temperature Precipitation Wind Pressure Humidity
    00:00 +27°C° 0.2 mm 1 mps 667 mmHg 53%
    01:00 +26°C° 0 mm 1 mps 667 mmHg 58%
    02:00 +25°C° 0.9 mm 1 mps 667 mmHg 62%
    03:00 +25°C° 0.9 mm 1 mps 667 mmHg 67%
    04:00 +24°C° 0.9 mm 1 mps 667 mmHg 71%
    05:00 +25°C° 0.1 mm 1 mps 667 mmHg 69%
    06:00 +25°C° 0.1 mm 1 mps 668 mmHg 67%
    07:00 +26°C° 0 mm 1 mps 668 mmHg 66%
    08:00 +26°C° 0.1 mm 1 mps 668 mmHg 64%
    09:00 +27°C° 0.1 mm 2 mps 668 mmHg 61%
    10:00 +27°C° 0.1 mm 2 mps 668 mmHg 59%
    11:00 +29°C° 0 mm 2 mps 668 mmHg 51%
    12:00 +31°C° 0 mm 2 mps 668 mmHg 44%
    13:00 +34°C° 0 mm 2 mps 668 mmHg 37%
    14:00 +34°C° 0 mm 2 mps 667 mmHg 36%
    15:00 +34°C° 0 mm 2 mps 667 mmHg 35%
    16:00 +34°C° 0 mm 3 mps 666 mmHg 34%
    17:00 +32°C° 0 mm 2 mps 666 mmHg 38%
    18:00 +31°C° 0 mm 2 mps 666 mmHg 42%
    19:00 +29°C° 0 mm 1 mps 666 mmHg 46%
    20:00 +29°C° 0.3 mm 1 mps 666 mmHg 48%
    21:00 +28°C° 0.3 mm 1 mps 667 mmHg 50%
    22:00 +28°C° 0.3 mm 2 mps 667 mmHg 52%
    23:00 +27°C° 0.7 mm 2 mps 667 mmHg 57%

    Tomorrow, 10 December, Saturday

    Time Temperature Precipitation Wind Pressure Humidity
    00:00 +26°C° 0.7 mm 2 mps 666 mmHg 62%
    01:00 +25°C° 0.7 mm 3 mps 666 mmHg 67%
    02:00 +25°C° 0.5 mm 2 mps 666 mmHg 67%
    03:00 +24°C° 0.5 mm 2 mps 666 mmHg 68%
    04:00 +24°C° 0.5 mm 2 mps 666 mmHg 69%
    05:00 +24°C° 0.1 mm 2 mps 666 mmHg 64%
    06:00 +25°C° 0.1 mm 2 mps 667 mmHg 59%
    07:00 +25°C° 0.1 mm 2 mps 667 mmHg 55%
    08:00 +28°C° 0.1 mm 2 mps 667 mmHg 48%
    09:00 +30°C° 0.1 mm 1 mps 668 mmHg 41%
    10:00 +32°C° 0.1 mm 1 mps 668 mmHg 35%
    11:00 +34°C° 0 mm 1 mps 668 mmHg 32%
    12:00 +35°C° 0 mm 1 mps 667 mmHg 29%
    13:00 +36°C° 0 mm 1 mps 667 mmHg 25%
    14:00 +36°C° 0 mm 1 mps 666 mmHg 26%
    15:00 +36°C° 0 mm 2 mps 666 mmHg 27%
    16:00 +36°C° 0 mm 2 mps 665 mmHg 27%
    17:00 +35°C° 0 mm 2 mps 665 mmHg 30%
    18:00 +32°C° 0 mm 2 mps 665 mmHg 34%
    19:00 +31°C° 0 mm 2 mps 665 mmHg 37%
    20:00 +30°C° 0.1 mm 2 mps 666 mmHg 41%
    21:00 +29°C° 0.1 mm 2 mps 666 mmHg 45%
    22:00 +28°C° 0.1 mm 3 mps 667 mmHg 50%
    23:00 +27°C° 0.4 mm 3 mps 666 mmHg 55%

    Day after tomorrow, 11 December, Sunday

    Time Temperature Precipitation Wind Pressure Humidity
    00:00 +26°C° 0.4 mm 3 mps 666 mmHg 61%
    01:00 +25°C° 0.4 mm 3 mps 666 mmHg 66%
    02:00 +25°C° 0.2 mm 2 mps 666 mmHg 66%
    03:00 +25°C° 0.2 mm 2 mps 666 mmHg 66%
    04:00 +25°C° 0.2 mm 1 mps 666 mmHg 66%
    05:00 +25°C° 0 mm 1 mps 666 mmHg 65%
    06:00 +26°C° 0 mm 1 mps 666 mmHg 63%
    07:00 +26°C° 0 mm 1 mps 667 mmHg 62%
    08:00 +28°C° 0 mm 1 mps 667 mmHg 53%
    09:00 +31°C° 0 mm 1 mps 668 mmHg 45%
    10:00 +33°C° 0 mm 1 mps 668 mmHg 37%
    11:00 +34°C° 0 mm 1 mps 667 mmHg 34%
    12:00 +35°C° 0 mm 1 mps 667 mmHg 31%
    13:00 +35°C° 0 mm 1 mps 666 mmHg 28%
    14:00 +35°C° 0 mm 1 mps 666 mmHg 29%
    15:00 +35°C° 0 mm 1 mps 665 mmHg 29%
    16:00 +32°C° 0 mm 0 mps 664 mmHg 30%
    17:00 +33°C° 0 mm 1 mps 665 mmHg 32%
    18:00 +32°C° 0 mm 1 mps 665 mmHg 34%
    19:00 +31°C° 0 mm 1 mps 665 mmHg 37%
    20:00 +30°C° 0.2 mm 1 mps 665 mmHg 41%
    21:00 +29°C° 0.2 mm 2 mps 666 mmHg 45%
    22:00 +28°C° 0.2 mm 2 mps 666 mmHg 49%
    23:00 +27°C° 0.8 mm 2 mps 666 mmHg 55%

    12 December, Monday

    Time Temperature Precipitation Wind Pressure Humidity
    00:00 +26°C° 0.8 mm 2 mps 666 mmHg 61%
    01:00 +25°C° 0.8 mm 2 mps 666 mmHg 68%
    02:00 +25°C° 0.1 mm 2 mps 666 mmHg 69%
    03:00 +24°C° 0.1 mm 2 mps 666 mmHg 71%
    04:00 +24°C° 0.1 mm 1 mps 666 mmHg 73%
    05:00 +25°C° 0 mm 1 mps 666 mmHg 71%
    06:00 +25°C° 0 mm 1 mps 666 mmHg 68%
    07:00 +26°C° 0 mm 1 mps 667 mmHg 65%
    08:00 +28°C° 0 mm 1 mps 667 mmHg 56%
    09:00 +31°C° 0 mm 1 mps 668 mmHg 47%
    10:00 +33°C° 0 mm 1 mps 668 mmHg 37%
    11:00 +34°C° 0 mm 1 mps 667 mmHg 35%
    12:00 +35°C° 0 mm 1 mps 667 mmHg 32%
    13:00 +35°C° 0 mm 1 mps 666 mmHg 29%
    14:00 +36°C° 0 mm 2 mps 666 mmHg 30%
    15:00 +35°C° 0 mm 2 mps 665 mmHg 30%
    16:00 +35°C° 0 mm 2 mps 664 mmHg 31%
    17:00 +34°C° 0 mm 2 mps 665 mmHg 36%
    18:00 +31°C° 0 mm 2 mps 665 mmHg 41%
    19:00 +30°C° 0 mm 2 mps 665 mmHg 46%
    20:00 +28°C° 0.9 mm 3 mps 665 mmHg 53%
    21:00 +27°C° 0.9 mm 4 mps 666 mmHg 60%
    22:00 +26°C° 0.9 mm 5 mps 666 mmHg 68%
    23:00 +25°C° 0.3 mm 4 mps 665 mmHg 70%

    13 December, Tuesday

    Time Temperature Precipitation Wind Pressure Humidity
    00:00 +25°C° 0.3 mm 4 mps 665 mmHg 72%
    01:00 +23°C° 0.3 mm 4 mps 665 mmHg 75%
    02:00 +23°C° 0.3 mm 4 mps 665 mmHg 75%
    03:00 +23°C° 0.3 mm 4 mps 665 mmHg 76%
    04:00 +22°C° 0.3 mm 4 mps 665 mmHg 76%
    05:00 +24°C° 0 mm 3 mps 665 mmHg 74%
    06:00 +24°C° 0 mm 3 mps 666 mmHg 71%
    07:00 +25°C° 0 mm 2 mps 666 mmHg 68%
    08:00 +27°C° 0 mm 2 mps 667 mmHg 60%
    09:00 +29°C° 0 mm 1 mps 667 mmHg 52%
    10:00 +31°C° 0 mm 1 mps 667 mmHg 44%
    11:00 +31°C° 0.9 mm 1 mps 667 mmHg 43%
    12:00 +32°C° 0.9 mm 2 mps 666 mmHg 42%
    13:00 +32°C° 0.9 mm 2 mps 665 mmHg 41%
    14:00 +32°C° 0.2 mm 2 mps 665 mmHg 41%
    15:00 +32°C° 0.2 mm 2 mps 665 mmHg 40%
    16:00 +32°C° 0.2 mm 2 mps 664 mmHg 39%
    17:00 +31°C° 0.3 mm 3 mps 665 mmHg 46%
    18:00 +29°C° 0.3 mm 3 mps 665 mmHg 52%
    19:00 +28°C° 0.3 mm 3 mps 665 mmHg 59%
    20:00 +27°C° 2.1 mm 3 mps 665 mmHg 64%
    21:00 +26°C° 2.1 mm 3 mps 665 mmHg 70%
    22:00 +24°C° 2.1 mm 3 mps 665 mmHg 76%
    23:00 +24°C° 2 mm 3 mps 665 mmHg 78%

    14 December, Wednesday

    Time Temperature Precipitation Wind Pressure Humidity
    00:00 +24°C° 2 mm 3 mps 665 mmHg 80%
    01:00 +22°C° 2 mm 3 mps 665 mmHg 82%
    02:00 +22°C° 0.2 mm 3 mps 665 mmHg 82%
    03:00 +22°C° 0.2 mm 3 mps 665 mmHg 83%
    04:00 +22°C° 0.2 mm 3 mps 665 mmHg 83%
    05:00 +22°C° 0 mm 3 mps 666 mmHg 79%
    06:00 +22°C° 0 mm 3 mps 666 mmHg 76%
    07:00 +24°C° 0 mm 3 mps 667 mmHg 73%
    08:00 +25°C° 0 mm 3 mps 667 mmHg 63%
    09:00 +27°C° 0 mm 3 mps 667 mmHg 53%
    10:00 +29°C° 0 mm 3 mps 668 mmHg 44%
    11:00 +30°C° 0 mm 3 mps 667 mmHg 40%
    12:00 +33°C° 0 mm 3 mps 667 mmHg 36%
    13:00 +34°C° 0 mm 2 mps 666 mmHg 32%
    14:00 +34°C° 0 mm 2 mps 666 mmHg 31%
    15:00 +35°C° 0 mm 2 mps 665 mmHg 30%
    16:00 +35°C° 0 mm 2 mps 665 mmHg 28%
    17:00 +32°C° 0.1 mm 2 mps 665 mmHg 34%
    18:00 +31°C° 0.1 mm 2 mps 665 mmHg 40%
    19:00 +29°C° 0.1 mm 2 mps 665 mmHg 46%
    20:00 +28°C° 0.1 mm 2 mps 666 mmHg 52%
    21:00 +27°C° 0.1 mm 3 mps 666 mmHg 58%
    22:00 +26°C° 0.1 mm 4 mps 666 mmHg 63%
    23:00 +26°C° 0 mm 4 mps 666 mmHg 64%
    Show more